Location: Kershaw
(34.5481°N, 80.5823°W)
Time: 09:27:12
(UTC+00:00)

Altair - Pass Details

Date: 03 October 2022
Orbit: 1501 x 1682 km, 47.2° (Epoch: 30 November)

Event Time Altitude Azimuth Distance (km) Brightness Sun altitude
Rises 16:40:46 0° 305° (NW) 4,917 9.9 50.6°
Reaches altitude 10° 16:43:55 10° 304° (NW) 3,937 9.5 50.8°
Maximum altitude 16:54:04 78° 220° (SW) 1,710 9.0 51.1°
Drops below altitude 10° 17:04:08 10° 136° (SE) 3,903 10.2 51.3°
Sets 17:07:15 0° 134° (SE) 4,872 10.5 51.3°
